This is the latest recevied weather packets stored in our database for station/object E24TVS-2. If no packets are shown the sender has not sent any weather packets the latest 1 day(s).
| Time | Temp. | Humidity | Pressure | Rain* | Wind** | Luminosity | Snow |
|---|---|---|---|---|---|---|---|
| 1778084209 | 31.67° C | 99% | 989 hPa | - | - | 0 W/m² | - |
| 1778075718 | 32.22° C | 99% | 989 hPa | - | - | 0 W/m² | - |
| 1778070646 | 33.33° C | 99% | 987 hPa | - | - | 0 W/m² | - |
| 1778069424 | 33.33° C | 99% | 987 hPa | - | - | 0 W/m² | - |
| 1778066980 | 33.89° C | 99% | 987 hPa | - | - | 0 W/m² | - |
| 1778065758 | 33.89° C | 99% | 986 hPa | - | - | 0 W/m² | - |
| 1778064536 | 33.89° C | 99% | 986 hPa | - | - | 0 W/m² | - |
| 1778060843 | 33.89° C | 99% | 987 hPa | - | - | 0 W/m² | - |
| 1778055955 | 35° C | 99% | 987 hPa | - | - | 0 W/m² | - |
| 1778053511 | 32.78° C | 99% | 987 hPa | - | - | 0 W/m² | - |
| 1778052289 | 32.78° C | 99% | 987 hPa | - | - | 0 W/m² | - |
| 1778048623 | 32.78° C | 99% | 989 hPa | - | - | 0 W/m² | - |
| 1778042512 | 32.22° C | 99% | 990 hPa | - | - | 0 W/m² | - |
| 1778041290 | 31.67° C | 99% | 991 hPa | - | - | 0 W/m² | - |
| 1778040069 | 31.67° C | 99% | 991 hPa | - | - | 0 W/m² | - |
| 1778038846 | 31.11° C | 99% | 991 hPa | - | - | 0 W/m² | - |
| 1778035180 | 29.44° C | 99% | 992 hPa | - | - | 0 W/m² | - |
| 1778033958 | 28.89° C | 99% | 992 hPa | - | - | 0 W/m² | - |
| 1778032736 | 28.33° C | 99% | 992 hPa | - | - | 0 W/m² | - |
| 1778031514 | 28.33° C | 99% | 992 hPa | - | - | 0 W/m² | - |
| 1778030292 | 27.78° C | 99% | 992 hPa | - | - | 0 W/m² | - |
| 1778029070 | 27.78° C | 99% | 992 hPa | - | - | 0 W/m² | - |
| 1778027848 | 27.78° C | 99% | 992 hPa | - | - | 0 W/m² | - |
| 1778026475 | 27.22° C | 99% | 992 hPa | - | - | 0 W/m² | - |
| 1778011776 | 27.22° C | 99% | 989 hPa | - | - | 0 W/m² | - |
* Rain since midnight (hover to see other rain measurements)
** Current wind speed in m/s (hover to see current wind gust speed)